Regional Weather Roundup
Issued by NWS

Home | Current Version | Previous Version | Graphics & Text | Print | Product List | Glossary On
Versions: 1 2 3 4 5 6 7 8 9 10 11 12 13 14 15 16 17 18 19 20 21 22 23 24 25 26 27 28 29 30 31 32 33 34 35 36 37 38 39 40 41 42 43 44 45 46 47 48 49 50
000
ASUS43 KDTX 210301
RWRMI
MICHIGAN HOURLY REGIONAL WEATHER ROUNDUP
NATIONAL WEATHER SERVICE DETROIT/PONTIAC MI
1100 PM EDT WED AUG 20 2014

NOTE: "FAIR" INDICATES FEW OR NO CLOUDS BELOW 12,000 FEET WITH NO
SIGNIFICANT WEATHER AND/OR OBSTRUCTION TO VISIBILITY.

MIZ047>049-052>055-059>063-066>070-074>076-081>083-210400-
SOUTHEAST LOWER MICHIGAN

CITY           SKY/WX    TMP DP  RH WIND       PRES   REMARKS
ADRIAN         CLEAR     69  64  84 CALM      29.97R
ALMA           CLEAR     63  62  94 CALM      29.95R
ANN ARBOR      CLEAR     64  61  90 CALM      29.96R
BAD AXE        CLEAR     64  64 100 SW3       29.92R FOG
CARO           MOCLDY    64  64  99 CALM      29.92R FOG
DETROIT CITY   CLOUDY    75  63  66 SW3       29.94R
DETROIT        PTCLDY    73  63  70 W7        29.96R
FLINT          PTCLDY    70  64  81 SW5       29.94R
GROSSE ILE     CLEAR     72  64  78 CALM      29.94R
HILLSDALE      PTCLDY    66  66 100 CALM      29.98R
HOWELL         PTCLDY    66  63  88 CALM      29.96R

CITY           SKY/WX    TMP DP  RH WIND       PRES   REMARKS
JACKSON        CLEAR     66  63  90 CALM      29.97R
LAMBERTVILLE   CLEAR     68  64  88 CALM      29.97R
LANSING        PTCLDY    67  63  87 CALM      29.96R
LAPEER         MOCLDY    65  64  94 CALM      29.94R
MASON          CLEAR     65  62  91 CALM      29.96R
MONROE         CLEAR     66  64  94 CALM      29.95R
MT. CLEMENS    CLEAR     69  65  87 S2        29.94R
PONTIAC        MOCLDY    71  63  75 SW3       29.95R
PORT HOPE        N/A     68  66  93 W5        29.89S
PORT HURON     FOG       63  63 100 CALM      29.94R VSB 1/4
TRI CITIES     CLEAR     68  62  81 NW6       29.94R
TROY           PTCLDY    73  63  69 W3        29.96R
SAGINAW HB     PTCLDY    66  64  94 NW3       29.93R
$$
MIZ043>046-050>051-056>058-064>065-071>073-077>080-210400-
SOUTHWEST LOWER MICHIGAN

CITY           SKY/WX    TMP DP  RH WIND       PRES   REMARKS
BATTLE CREEK   MOCLDY    71  65  81 CALM      29.96R
BENTON HARBOR  MOCLDY    69  66  90 CALM      29.93R
BIG RAPIDS     CLEAR     63  62  97 CALM      29.95R
COLDWATER      PTCLDY    69  67  93 SE3       29.96S
FREMONT        FAIR      64  62  93 CALM      29.94S
HOLLAND        PTCLDY    72  65  78 NE3       29.94R
GRAND RAPIDS   CLEAR     69  66  90 NE3       29.94S
IONIA          FAIR      67  62  84 CALM      29.95R
KALAMAZOO      PTCLDY    71  65  81 CALM      29.95R
LUDINGTON      CLEAR     59  58  97 CALM      29.95R
MARSHALL       CLOUDY    66  64  94 CALM      29.96R
MOUNT PLEASANT CLEAR     63  61  95 CALM      29.94R
MUSKEGON       PTCLDY    67  63  87 CALM      29.94R
SOUTH HAVEN    PTCLDY    71  67  89 E3        29.93R
$$
MIZ016>042-210400-
NORTHERN LOWER MICHIGAN

CITY           SKY/WX    TMP DP  RH WIND       PRES   REMARKS
ALPENA         PTCLDY    65  63  93 NW3       29.93S
BEAVER ISLAND  CLOUDY    64  62  95 CALM      29.95S
BELLAIRE       CLOUDY    63  60  90 CALM      29.94S
CADILLAC       CLOUDY    63  61  93 NW6       29.96R
CHARLEVOIX     CLOUDY    64  64 100 W5        29.98R
FRANKFORT      CLEAR     61  58  90 CALM      29.95R
GAYLORD        CLOUDY    61  60  97 VRB3      29.96R
GRAYLING       CLOUDY    63  61  94 N5        29.96S
HARBOR SPRINGS CLOUDY    64  62  93 CALM      29.94S
HOUGHTON LAKE  CLOUDY    63  60  90 N6        29.95S
MANISTEE       CLEAR     61  57  88 CALM      29.95R
OSCODA         LGT RAIN  66  65  97 N6        29.91S
PELLSTON       CLOUDY    63  62  97 W3        29.95R
ROGERS CITY    CLOUDY    64  64 100 W3        29.94S
TRAVERSE CITY  CLEAR     65  60  84 N3        29.93S
$$
MIZ007>008-015-210400-
EASTERN UPPER MICHIGAN

CITY           SKY/WX    TMP DP  RH WIND       PRES   REMARKS
KINROSS        CLOUDY    61  61 100 NW5       29.94S
MACKINAC ISLAN CLOUDY    62  62 100 NW5       29.93S FOG
NEWBERRY       CLOUDY    59  58  97 CALM      29.95R
S. S. MARIE    CLOUDY    60  59  96 NW5       29.93R
$$
MIZ004>006-011>014-085-210400-
CENTRAL UPPER MICHIGAN

CITY           SKY/WX    TMP DP  RH WIND       PRES   REMARKS
MANISTIQUE     CLOUDY    62  60  93 N3        29.95S
ESCANABA       CLOUDY    63  59  88 CALM      29.94S
MENOMINEE      CLOUDY    66  63  88 E3        29.93S
SAWYER-GWINN   CLOUDY    58  57  96 CALM      29.97R FOG
$$
MIZ001>003-009>011-084-210400-
WESTERN UPPER MICHIGAN

CITY           SKY/WX    TMP DP  RH WIND       PRES   REMARKS
IRON MOUNTAIN  CLOUDY    64  61  90 NW3       29.95R
HOUGHTON       CLOUDY    60  58  92 NE7       29.95F
COPPER HARBOR    N/A     55  53  93 CALM      29.96R
IRONWOOD       CLOUDY    63  63 100 CALM      29.94S
$$

ABBREVIATIONS USED IN REMARKS
   TC - TEMPERATURE IN CELSIUS
  WCI - WIND CHILL INDEX
   HX - HEAT INDEX
  VSB - VISIBILITY



USA.gov is the U.S. government's official web portal to all federal, state and local government web resources and services.